GSAT0209 (GALILEO 12)   
1 41174U 15079A   19257.28114933 -.00000010  00000-0  00000+0 0  9995
2 41174  54.9542 169.1114 0004841 315.1361  44.8557  1.70472994 23289
GSAT0208 (GALILEO 11)   
1 41175U 15079B   19258.67415278  .00000000  00000-0  00000+0 0  9994
2 41175  54.9525 169.0728 0003965 318.0577  41.9538  1.70473043 23315
FREGAT R/B              
1 41176U 15079C   19255.08901445 -.00000027  00000-0  00000+0 0  9993
2 41176  54.9444 170.5869 0009612 215.2292 144.7175  1.67561077 22843